INTELSAT 33E DEB, 61994

Orbit data source: Space-Track

INTELSAT 33E DEB, 61994 is space debris in GEO originally from a launch on Wed, 24 Aug 2016 UTC launched from the French Guiana (FRGUI). Debris objects in space refer to the collection of defunct objects orbiting the Earth. Examples of debris include non-operational satellites, rocket bodies, and fragments generated from explosions, collisions, or faulty payload assembly.

Loading next visibility...
Identifier
61994, 2016-053L
Orbit
GEO
Last TLE update
1 day ago
Origin
Manufacturer
Boeing/ES
Mission
Spacecraft
Bus & Motor
Unknown
Mass
Unknown
Launch date (UTC)
2016-08-24 (9 years ago)
Launch vehicle
Unknown
Launch site
French Guiana (FRGUI)
Object type
Payload
Rocket body
Debris
Shape & HBR
Unknown
Radar Cross Section
RCS unknown

Expand to show TLE details & history

TLE from 1 day ago
0 INTELSAT 33E DEB
1 61994U 16053L   25185.43810107 -.00000235  00000-0  00000-0 0  9990
2 61994   0.6885  92.9599 0024441 199.3675  67.4072  1.00516092  2604
Epoch: 2025-07-04T10:30Z
TLE epoch observation values (Epoch: 2025-07-04T10:30:51.932Z)
Latitude
-0.6928°
Longitude
-80.40695°
Altitude
35,678.586 km
Speed
3.08 km/s
True Right ascension
23h 59m 59s
True Declination
0° 41' 32"
Sunlit
Object was in daylight at epoch
Visualization orbit readout
Latitude
0.35999°
Longitude
41.87748°
Altitude
35,819.477 km
Speed
3.07 km/s
Apparent Right ascension
08h 21m 57s
Apparent Declination
-5° 44' 38"
Sunlit
Object is in daylight
Visualization observer readout
Local Sidereal Time
06:26:51
Azimuth
143.035° SSE
Elevation
37.206°
Doppler factor
1
Orbital elements
Apogee altitude
35,822.208 km
Perigee altitude
35,616.427 km
Semi-major axis
42,097.454 km
Eccentricity
0.00244
Inclination
0.6885°
RAAN
92.9599°
Arg. of periapsis
199.3675°
True anomaly
Unknown
Mean anomaly
67.4072°
Eccentric anomaly
Unknown
Mean motion
0.25128 °/min
Orbital period
1,432.66 mins
BSTAR
0
Loading historical data...
61994 neighbors
Loading maneuver chart data...
Loading SW <> Apogee altitude chart data...
Loading historical data...
Loading historical data...
Loading historical data...
Loading historical data...
Loading historical data...
Loading historical data...
Loading historical data...

INTELSAT 33E DEB Visibility forecast

Observer location: undefined°, undefined°

Span
Click to sort rows by Start time (UTC) header in descending order
Start Az.
Max El. time (UTC)
Max El. Az.
Max El.
End time (UTC)
End Az.
1440 mins2025-07-05 18:31:18.502Z143.047° SSE2025-07-05 22:28:18.502Z142.913° SSE31.358°2025-07-06 18:31:18.502Z141.966° SSE
|